GLO1889 SBSV-SBGL

Flight info

Callsign GLO1889
Flight time 1h 46m
Altitude 38000
Route IRUMI UN857 MOLSU
Aircraft B738/M-SDFGIKLORWXY/LB1

Departure

Time 2026-05-03 20:30
Airport Deputado Luiz Eduardo Magalhães International Airport (SBSV)

Arrival

Time 2026-05-03 22:16
Airport Rio Galeão – Tom Jobim International Airport (SBGL)
Time Latitude Longitude Altitude Speed Heading
2026-05-03 20:15 -12.91391 -38.33210 43 ft 0 kts 277°
2026-05-03 20:22 -12.91392 -38.33207 43 ft 2 kts 277°
2026-05-03 20:22 -12.91394 -38.33189 43 ft 3 kts 281°
2026-05-03 20:23 -12.91399 -38.33169 41 ft 3 kts 291°
2026-05-03 20:23 -12.91408 -38.33151 39 ft 3 kts 313°
2026-05-03 20:23 -12.91420 -38.33142 37 ft 2 kts 347°
2026-05-03 20:23 -12.91423 -38.33141 37 ft 1 kts 349°
2026-05-03 20:26 -12.91421 -38.33142 37 ft 1 kts 349°
2026-05-03 20:26 -12.91386 -38.33148 39 ft 8 kts 349°
2026-05-03 20:26 -12.91321 -38.33162 43 ft 11 kts 348°
2026-05-03 20:26 -12.91237 -38.33180 43 ft 13 kts 347°
2026-05-03 20:27 -12.91216 -38.33253 42 ft 12 kts 258°
2026-05-03 20:27 -12.91216 -38.33337 41 ft 12 kts 292°
2026-05-03 20:27 -12.91199 -38.33372 40 ft 0 kts 297°
2026-05-03 20:28 -12.91187 -38.33397 43 ft 7 kts 295°
2026-05-03 20:28 -12.91183 -38.33456 42 ft 10 kts 260°
2026-05-03 20:28 -12.91197 -38.33535 42 ft 11 kts 262°
2026-05-03 20:29 -12.91150 -38.33584 43 ft 11 kts
2026-05-03 20:29 -12.91112 -38.33524 43 ft 16 kts 79°
2026-05-03 20:29 -12.91062 -38.33270 41 ft 68 kts 81°
2026-05-03 20:29 -12.90921 -38.32574 51 ft 129 kts 78°
2026-05-03 20:30 -12.90710 -38.31493 48 ft 178 kts 79°
2026-05-03 20:30 -12.90430 -38.30244 730 ft 172 kts 81°
2026-05-03 20:30 -12.90521 -38.29064 1423 ft 174 kts 121°
2026-05-03 20:30 -12.91478 -38.28251 1725 ft 199 kts 165°
2026-05-03 20:31 -12.92938 -38.28132 1978 ft 224 kts 179°
2026-05-03 20:31 -12.94596 -38.28162 2298 ft 247 kts 180°
2026-05-03 20:31 -12.96340 -38.28211 2971 ft 255 kts 180°
2026-05-03 20:31 -12.98130 -38.28259 3749 ft 258 kts 180°
2026-05-03 20:32 -12.99935 -38.28303 4516 ft 262 kts 179°
2026-05-03 20:32 -13.01772 -38.28341 5289 ft 264 kts 179°
2026-05-03 20:32 -13.03614 -38.28376 6083 ft 266 kts 178°
2026-05-03 20:32 -13.05467 -38.28407 6884 ft 267 kts 178°
2026-05-03 20:33 -13.07354 -38.28435 7508 ft 274 kts 178°
2026-05-03 20:33 -13.09286 -38.28462 8163 ft 280 kts 178°
2026-05-03 20:33 -13.11244 -38.28488 8852 ft 284 kts 179°
2026-05-03 20:33 -13.13238 -38.28514 9530 ft 289 kts 179°
2026-05-03 20:34 -13.15243 -38.28539 10144 ft 295 kts 179°
2026-05-03 20:34 -13.17347 -38.28563 10413 ft 314 kts 179°
2026-05-03 20:34 -13.19601 -38.28588 10574 ft 334 kts 179°
2026-05-03 20:34 -13.21976 -38.28615 10941 ft 345 kts 179°
2026-05-03 20:35 -13.24384 -38.28644 11525 ft 347 kts 179°
2026-05-03 20:35 -13.26808 -38.28673 12194 ft 349 kts 179°
2026-05-03 20:35 -13.29245 -38.28703 12815 ft 351 kts 179°
2026-05-03 20:35 -13.31697 -38.28732 13443 ft 354 kts 178°
2026-05-03 20:36 -13.34178 -38.28761 14064 ft 356 kts 178°
2026-05-03 20:36 -13.36668 -38.28790 14583 ft 360 kts 179°
2026-05-03 20:36 -13.39192 -38.28819 15120 ft 364 kts 179°
2026-05-03 20:36 -13.41735 -38.28848 15666 ft 368 kts 179°
2026-05-03 20:37 -13.44310 -38.28878 16207 ft 371 kts 179°
2026-05-03 20:37 -13.46909 -38.28907 16753 ft 375 kts 179°
2026-05-03 20:37 -13.49527 -38.28938 17306 ft 378 kts 179°
2026-05-03 20:37 -13.52134 -38.28968 17826 ft 381 kts 179°
2026-05-03 20:38 -13.54802 -38.28999 18320 ft 385 kts 179°
2026-05-03 20:38 -13.57490 -38.29030 18790 ft 388 kts 179°
2026-05-03 20:38 -13.60196 -38.29062 19264 ft 390 kts 179°
2026-05-03 20:38 -13.62922 -38.29093 19701 ft 393 kts 179°
2026-05-03 20:39 -13.65672 -38.29124 20136 ft 396 kts 179°
2026-05-03 20:39 -13.68439 -38.29156 20579 ft 399 kts 179°
2026-05-03 20:39 -13.71233 -38.29278 21001 ft 403 kts 186°
2026-05-03 20:39 -13.73981 -38.29929 21425 ft 408 kts 198°
2026-05-03 20:40 -13.76633 -38.31024 21871 ft 411 kts 202°
2026-05-03 20:40 -13.79266 -38.32182 22284 ft 414 kts 202°
2026-05-03 20:40 -13.81928 -38.33364 22699 ft 417 kts 202°
2026-05-03 20:40 -13.84603 -38.34549 23099 ft 420 kts 202°
2026-05-03 20:41 -13.87303 -38.35737 23500 ft 423 kts 202°
2026-05-03 20:41 -13.90017 -38.36924 23844 ft 426 kts 202°
2026-05-03 20:41 -13.92753 -38.38114 24188 ft 428 kts 202°
2026-05-03 20:41 -13.95474 -38.39295 24517 ft 430 kts 202°
2026-05-03 20:42 -13.98243 -38.40495 24846 ft 433 kts 202°
2026-05-03 20:42 -14.01001 -38.41689 25170 ft 435 kts 202°
2026-05-03 20:42 -14.03824 -38.42911 25492 ft 437 kts 202°
2026-05-03 20:42 -14.06638 -38.44130 25807 ft 440 kts 203°
2026-05-03 20:43 -14.09463 -38.45354 26122 ft 442 kts 203°
2026-05-03 20:43 -14.12305 -38.46585 26434 ft 444 kts 203°
2026-05-03 20:43 -14.15166 -38.47825 26749 ft 447 kts 203°
2026-05-03 20:43 -14.18038 -38.49071 27058 ft 449 kts 203°
2026-05-03 20:44 -14.20921 -38.50321 27361 ft 451 kts 203°
2026-05-03 20:44 -14.23820 -38.51579 27644 ft 453 kts 203°
2026-05-03 20:44 -14.26737 -38.52845 27936 ft 455 kts 203°
2026-05-03 20:44 -14.29662 -38.54115 28225 ft 458 kts 203°
2026-05-03 20:45 -14.32608 -38.55395 28501 ft 460 kts 203°
2026-05-03 20:45 -14.35568 -38.56680 28773 ft 462 kts 203°
2026-05-03 20:45 -14.38535 -38.57969 29043 ft 464 kts 203°
2026-05-03 20:45 -14.41520 -38.59267 29309 ft 466 kts 203°
2026-05-03 20:46 -14.44478 -38.60553 29557 ft 468 kts 203°
2026-05-03 20:46 -14.47486 -38.61862 29817 ft 470 kts 203°
2026-05-03 20:46 -14.50510 -38.63177 30080 ft 472 kts 203°
2026-05-03 20:46 -14.53540 -38.64495 30287 ft 474 kts 204°
2026-05-03 20:47 -14.56580 -38.65818 30502 ft 475 kts 204°
2026-05-03 20:47 -14.59628 -38.67146 30762 ft 475 kts 204°
2026-05-03 20:47 -14.62669 -38.68470 31174 ft 472 kts 204°
2026-05-03 20:47 -14.65694 -38.69788 31526 ft 470 kts 204°
2026-05-03 20:48 -14.68696 -38.71096 31859 ft 468 kts 204°
2026-05-03 20:48 -14.71696 -38.72404 32182 ft 467 kts 204°
2026-05-03 20:48 -14.74685 -38.73707 32508 ft 466 kts 204°
2026-05-03 20:48 -14.77671 -38.75009 32856 ft 465 kts 204°
2026-05-03 20:49 -14.80646 -38.76307 33211 ft 463 kts 204°
2026-05-03 20:49 -14.83612 -38.77602 33551 ft 462 kts 204°
2026-05-03 20:49 -14.86575 -38.78895 33859 ft 461 kts 204°
2026-05-03 20:49 -14.89487 -38.80167 34148 ft 460 kts 204°
2026-05-03 20:50 -14.92432 -38.81454 34445 ft 458 kts 204°
2026-05-03 20:50 -14.95362 -38.82734 34765 ft 456 kts 204°
2026-05-03 20:50 -14.98287 -38.84012 35063 ft 455 kts 204°
2026-05-03 20:50 -15.01199 -38.85285 35321 ft 454 kts 204°
2026-05-03 20:51 -15.04111 -38.86559 35588 ft 453 kts 204°
2026-05-03 20:51 -15.07012 -38.87828 35885 ft 451 kts 205°
2026-05-03 20:51 -15.09898 -38.89091 36149 ft 450 kts 205°
2026-05-03 20:51 -15.12780 -38.90353 36404 ft 449 kts 205°
2026-05-03 20:52 -15.15617 -38.91595 36651 ft 448 kts 205°
2026-05-03 20:52 -15.18488 -38.92853 36918 ft 446 kts 205°
2026-05-03 20:52 -15.21343 -38.94104 37159 ft 445 kts 205°
2026-05-03 20:52 -15.24193 -38.95353 37381 ft 445 kts 205°
2026-05-03 20:53 -15.27046 -38.96604 37609 ft 444 kts 205°
2026-05-03 20:53 -15.29884 -38.97848 37851 ft 443 kts 205°
2026-05-03 20:53 -15.32723 -38.99093 38033 ft 443 kts 205°
2026-05-03 20:54 -15.38421 -39.01595 38019 ft 445 kts 205°
2026-05-03 20:54 -15.46920 -39.05326 38020 ft 439 kts 205°
2026-05-03 20:55 -15.52531 -39.07792 38025 ft 436 kts 205°
2026-05-03 20:55 -15.58104 -39.10243 38027 ft 434 kts 205°
2026-05-03 20:56 -15.63664 -39.12690 38032 ft 434 kts 205°
2026-05-03 20:56 -15.69229 -39.15141 38041 ft 435 kts 205°
2026-05-03 20:57 -15.74776 -39.17585 38042 ft 437 kts 206°
2026-05-03 20:57 -15.80391 -39.20061 38035 ft 439 kts 205°
2026-05-03 20:58 -15.86033 -39.22550 38037 ft 441 kts 206°
2026-05-03 20:58 -15.91699 -39.25050 38039 ft 443 kts 206°
2026-05-03 20:59 -15.97391 -39.27564 38041 ft 445 kts 206°
2026-05-03 20:59 -16.03093 -39.30083 38040 ft 445 kts 206°
2026-05-03 21:00 -16.06867 -39.31751 38038 ft 445 kts 206°
2026-05-03 21:00 -16.14487 -39.35122 38035 ft 444 kts 206°
2026-05-03 21:01 -16.20120 -39.37615 38047 ft 442 kts 206°
2026-05-03 21:01 -16.25774 -39.40120 38036 ft 440 kts 206°
2026-05-03 21:02 -16.31396 -39.42612 38047 ft 438 kts 206°
2026-05-03 21:02 -16.36996 -39.45096 38044 ft 436 kts 206°
2026-05-03 21:03 -16.42571 -39.47570 38047 ft 435 kts 206°
2026-05-03 21:03 -16.48132 -39.50040 38049 ft 434 kts 206°
2026-05-03 21:04 -16.53661 -39.52497 38052 ft 434 kts 206°
2026-05-03 21:04 -16.59225 -39.54972 38053 ft 435 kts 206°
2026-05-03 21:05 -16.64792 -39.57449 38052 ft 435 kts 206°
2026-05-03 21:05 -16.70365 -39.59930 38050 ft 436 kts 206°
2026-05-03 21:06 -16.75949 -39.62418 38058 ft 437 kts 206°
2026-05-03 21:06 -16.81548 -39.64914 38054 ft 438 kts 206°
2026-05-03 21:07 -16.87111 -39.67396 38062 ft 438 kts 206°
2026-05-03 21:07 -16.92730 -39.69904 38054 ft 439 kts 206°
2026-05-03 21:08 -16.98355 -39.72416 38058 ft 440 kts 206°
2026-05-03 21:08 -17.03983 -39.74932 38062 ft 440 kts 206°
2026-05-03 21:09 -17.08665 -39.77026 38068 ft 440 kts 206°
2026-05-03 21:09 -17.14296 -39.79545 38069 ft 440 kts 206°
2026-05-03 21:10 -17.19930 -39.82068 38061 ft 440 kts 206°
2026-05-03 21:10 -17.25549 -39.84585 38070 ft 439 kts 207°
2026-05-03 21:11 -17.31152 -39.87098 38070 ft 438 kts 207°
2026-05-03 21:11 -17.36751 -39.89610 38059 ft 437 kts 207°
2026-05-03 21:12 -17.42299 -39.92101 38062 ft 436 kts 207°
2026-05-03 21:12 -17.47907 -39.94620 38071 ft 435 kts 207°
2026-05-03 21:13 -17.53432 -39.97105 38071 ft 435 kts 207°
2026-05-03 21:13 -17.58996 -39.99608 38071 ft 435 kts 207°
2026-05-03 21:14 -17.64561 -40.02113 38072 ft 435 kts 207°
2026-05-03 21:14 -17.70122 -40.04619 38082 ft 435 kts 207°
2026-05-03 21:15 -17.75688 -40.07128 38091 ft 435 kts 207°
2026-05-03 21:15 -17.81248 -40.09636 38070 ft 436 kts 207°
2026-05-03 21:16 -17.86829 -40.12155 38082 ft 436 kts 207°
2026-05-03 21:16 -17.92378 -40.14662 38076 ft 437 kts 207°
2026-05-03 21:17 -17.97958 -40.17185 38075 ft 437 kts 207°
2026-05-03 21:17 -18.03560 -40.19719 38072 ft 438 kts 207°
2026-05-03 21:18 -18.09162 -40.22254 38092 ft 438 kts 208°
2026-05-03 21:18 -18.14762 -40.24791 38073 ft 438 kts 208°
2026-05-03 21:19 -18.20362 -40.27329 38082 ft 438 kts 208°
2026-05-03 21:19 -18.25962 -40.29869 38077 ft 438 kts 208°
2026-05-03 21:20 -18.31514 -40.32389 38075 ft 437 kts 208°
2026-05-03 21:20 -18.37098 -40.34925 38082 ft 436 kts 208°
2026-05-03 21:21 -18.42679 -40.37462 38081 ft 435 kts 208°
2026-05-03 21:21 -18.48234 -40.39989 38084 ft 435 kts 208°
2026-05-03 21:22 -18.53778 -40.42513 38090 ft 434 kts 208°
2026-05-03 21:22 -18.59313 -40.45034 38088 ft 433 kts 208°
2026-05-03 21:23 -18.64833 -40.47550 38080 ft 432 kts 208°
2026-05-03 21:23 -18.70312 -40.50050 38086 ft 431 kts 208°
2026-05-03 21:24 -18.75818 -40.52564 38097 ft 431 kts 208°
2026-05-03 21:24 -18.81322 -40.55078 38085 ft 431 kts 208°
2026-05-03 21:25 -18.86822 -40.57592 38093 ft 430 kts 208°
2026-05-03 21:25 -18.92311 -40.60104 38088 ft 430 kts 208°
2026-05-03 21:26 -18.97806 -40.62619 38091 ft 430 kts 208°
2026-05-03 21:26 -19.03304 -40.65140 38108 ft 431 kts 208°
2026-05-03 21:27 -19.08824 -40.67674 38084 ft 433 kts 209°
2026-05-03 21:27 -19.14314 -40.70190 38090 ft 433 kts 209°
2026-05-03 21:28 -19.19835 -40.72723 38088 ft 432 kts 209°
2026-05-03 21:28 -19.25337 -40.75251 38101 ft 431 kts 209°
2026-05-03 21:29 -19.30848 -40.77785 38085 ft 431 kts 209°
2026-05-03 21:29 -19.36352 -40.80318 38084 ft 431 kts 209°
2026-05-03 21:30 -19.41845 -40.82847 38084 ft 430 kts 209°
2026-05-03 21:30 -19.47334 -40.85377 38094 ft 430 kts 209°
2026-05-03 21:31 -19.52782 -40.87890 38090 ft 430 kts 209°
2026-05-03 21:31 -19.58310 -40.90442 38089 ft 431 kts 209°
2026-05-03 21:32 -19.63802 -40.92979 38105 ft 431 kts 210°
2026-05-03 21:32 -19.69305 -40.95523 38090 ft 432 kts 210°
2026-05-03 21:33 -19.74776 -40.98054 38073 ft 432 kts 210°
2026-05-03 21:33 -19.80280 -41.00602 38112 ft 432 kts 210°
2026-05-03 21:34 -19.85788 -41.03158 38109 ft 431 kts 211°
2026-05-03 21:34 -19.91053 -41.06109 38116 ft 427 kts 215°
2026-05-03 21:35 -19.96215 -41.09213 38118 ft 427 kts 216°
2026-05-03 21:35 -20.01397 -41.12299 38133 ft 426 kts 215°
2026-05-03 21:36 -20.06581 -41.15360 38134 ft 426 kts 215°
2026-05-03 21:36 -20.11767 -41.18415 38148 ft 425 kts 215°
2026-05-03 21:37 -20.16940 -41.21470 38138 ft 425 kts 215°
2026-05-03 21:37 -20.22095 -41.24507 38157 ft 423 kts 216°
2026-05-03 21:38 -20.27244 -41.27543 38169 ft 423 kts 215°
2026-05-03 21:38 -20.32393 -41.30582 38170 ft 423 kts 216°
2026-05-03 21:39 -20.37506 -41.33603 38179 ft 423 kts 215°
2026-05-03 21:39 -20.42661 -41.36652 38172 ft 424 kts 216°
2026-05-03 21:40 -20.47831 -41.39711 38182 ft 424 kts 216°
2026-05-03 21:40 -20.53005 -41.42764 38176 ft 426 kts 215°
2026-05-03 21:41 -20.58190 -41.45809 38192 ft 426 kts 215°
2026-05-03 21:41 -20.63392 -41.48868 38166 ft 428 kts 215°
2026-05-03 21:42 -20.68613 -41.51941 38174 ft 428 kts 215°
2026-05-03 21:42 -20.73820 -41.55009 38185 ft 426 kts 216°
2026-05-03 21:43 -20.78977 -41.58051 38184 ft 426 kts 216°
2026-05-03 21:43 -20.84168 -41.61115 38190 ft 426 kts 216°
2026-05-03 21:44 -20.89331 -41.64165 38197 ft 422 kts 216°
2026-05-03 21:44 -20.94472 -41.67202 38169 ft 422 kts 216°
2026-05-03 21:45 -20.99607 -41.70243 38189 ft 421 kts 216°
2026-05-03 21:45 -21.04752 -41.73293 38176 ft 423 kts 216°
2026-05-03 21:46 -21.09899 -41.76345 38170 ft 424 kts 216°
2026-05-03 21:46 -21.15040 -41.79395 38162 ft 425 kts 216°
2026-05-03 21:47 -21.20200 -41.82455 38180 ft 423 kts 216°
2026-05-03 21:47 -21.25367 -41.85523 38158 ft 425 kts 216°
2026-05-03 21:48 -21.30544 -41.88597 38161 ft 425 kts 216°
2026-05-03 21:48 -21.35721 -41.91675 38158 ft 426 kts 216°
2026-05-03 21:49 -21.40925 -41.94771 38152 ft 428 kts 215°
2026-05-03 21:49 -21.46139 -41.97876 38147 ft 429 kts 215°
2026-05-03 21:50 -21.51316 -42.00960 38107 ft 430 kts 215°
2026-05-03 21:50 -21.53954 -42.02535 37622 ft 434 kts 215°
2026-05-03 21:50 -21.56590 -42.04108 37058 ft 432 kts 216°
2026-05-03 21:51 -21.59198 -42.05661 36734 ft 426 kts 216°
2026-05-03 21:51 -21.61778 -42.07198 36295 ft 423 kts 216°
2026-05-03 21:51 -21.64336 -42.08725 35901 ft 419 kts 216°
2026-05-03 21:51 -21.66874 -42.10241 35485 ft 416 kts 216°
2026-05-03 21:52 -21.69393 -42.11748 35079 ft 413 kts 216°
2026-05-03 21:52 -21.71894 -42.13245 34679 ft 410 kts 217°
2026-05-03 21:52 -21.74382 -42.14734 34268 ft 408 kts 216°
2026-05-03 21:52 -21.76855 -42.16216 33811 ft 406 kts 216°
2026-05-03 21:53 -21.79311 -42.17687 33360 ft 401 kts 217°
2026-05-03 21:53 -21.81735 -42.19138 32991 ft 395 kts 217°
2026-05-03 21:53 -21.84126 -42.20570 32595 ft 391 kts 217°
2026-05-03 21:53 -21.86490 -42.21990 32208 ft 387 kts 217°
2026-05-03 21:54 -21.88802 -42.23384 31849 ft 384 kts 217°
2026-05-03 21:54 -21.91125 -42.24787 31474 ft 381 kts 217°
2026-05-03 21:54 -21.93433 -42.26181 31099 ft 379 kts 217°
2026-05-03 21:54 -21.95720 -42.27563 30730 ft 376 kts 217°
2026-05-03 21:55 -21.98001 -42.28942 30367 ft 374 kts 217°
2026-05-03 21:55 -22.00267 -42.30313 29946 ft 372 kts 217°
2026-05-03 21:55 -22.02513 -42.31671 29531 ft 369 kts 217°
2026-05-03 21:55 -22.04746 -42.33020 29110 ft 366 kts 217°
2026-05-03 21:56 -22.06955 -42.34354 28725 ft 362 kts 216°
2026-05-03 21:56 -22.08353 -42.35298 28449 ft 353 kts 226°
2026-05-03 21:56 -22.09998 -42.37179 28120 ft 339 kts 239°
2026-05-03 21:56 -22.11124 -42.39359 27786 ft 330 kts 252°
2026-05-03 21:57 -22.11805 -42.41699 27482 ft 325 kts 257°
2026-05-03 21:57 -22.12369 -42.44052 27156 ft 323 kts 257°
2026-05-03 21:57 -22.12909 -42.46414 26866 ft 326 kts 258°
2026-05-03 21:57 -22.13457 -42.48804 26519 ft 330 kts 257°
2026-05-03 21:58 -22.14018 -42.51212 26206 ft 331 kts 257°
2026-05-03 21:58 -22.14585 -42.53620 25872 ft 330 kts 257°
2026-05-03 21:58 -22.15153 -42.56009 25559 ft 328 kts 257°
2026-05-03 21:58 -22.15722 -42.58389 25234 ft 327 kts 257°
2026-05-03 21:59 -22.16289 -42.60750 24918 ft 324 kts 257°
2026-05-03 21:59 -22.16853 -42.63100 24597 ft 323 kts 257°
2026-05-03 21:59 -22.17415 -42.65439 24283 ft 321 kts 256°
2026-05-03 21:59 -22.17973 -42.67768 23972 ft 320 kts 256°
2026-05-03 22:00 -22.18529 -42.70087 23608 ft 319 kts 256°
2026-05-03 22:00 -22.19083 -42.72395 23286 ft 317 kts 256°
2026-05-03 22:00 -22.19632 -42.74689 22959 ft 314 kts 256°
2026-05-03 22:00 -22.20178 -42.76967 22658 ft 313 kts 256°
2026-05-03 22:01 -22.20722 -42.79240 22337 ft 313 kts 256°
2026-05-03 22:01 -22.21264 -42.81505 22028 ft 311 kts 256°
2026-05-03 22:01 -22.21796 -42.83737 21731 ft 310 kts 256°
2026-05-03 22:01 -22.22341 -42.86017 21426 ft 310 kts 256°
2026-05-03 22:02 -22.22871 -42.88241 21129 ft 310 kts 256°
2026-05-03 22:02 -22.23102 -42.89209 21009 ft 310 kts 256°
2026-05-03 22:02 -22.23138 -42.89359 20982 ft 310 kts 256°
2026-05-03 22:03 -22.23677 -42.91620 20667 ft 310 kts 256°
2026-05-03 22:03 -22.24215 -42.93881 20376 ft 312 kts 256°
2026-05-03 22:03 -22.24757 -42.96154 20071 ft 313 kts 256°
2026-05-03 22:03 -22.25301 -42.98442 19761 ft 314 kts 256°
2026-05-03 22:04 -22.26015 -43.00661 19535 ft 312 kts 245°
2026-05-03 22:04 -22.27122 -43.02650 19397 ft 306 kts 236°
2026-05-03 22:04 -22.28417 -43.04427 19326 ft 296 kts 233°
2026-05-03 22:04 -22.29708 -43.06122 19215 ft 288 kts 233°
2026-05-03 22:05 -22.30974 -43.07773 19003 ft 283 kts 232°
2026-05-03 22:05 -22.32212 -43.09391 18920 ft 275 kts 233°
2026-05-03 22:05 -22.33411 -43.10964 18814 ft 268 kts 233°
2026-05-03 22:05 -22.34581 -43.12503 18624 ft 263 kts 233°
2026-05-03 22:06 -22.35737 -43.14036 18311 ft 263 kts 233°
2026-05-03 22:06 -22.36907 -43.15592 17638 ft 275 kts 232°
2026-05-03 22:06 -22.38169 -43.17275 16618 ft 301 kts 232°
2026-05-03 22:06 -22.39512 -43.19064 16021 ft 310 kts 232°
2026-05-03 22:07 -22.40875 -43.20877 15501 ft 314 kts 232°
2026-05-03 22:07 -22.42295 -43.22767 14654 ft 333 kts 232°
2026-05-03 22:07 -22.43761 -43.24718 13909 ft 343 kts 231°
2026-05-03 22:07 -22.45283 -43.26744 13076 ft 352 kts 231°
2026-05-03 22:08 -22.46863 -43.28848 12248 ft 359 kts 232°
2026-05-03 22:08 -22.48447 -43.30960 11455 ft 364 kts 232°
2026-05-03 22:08 -22.50030 -43.33070 10763 ft 364 kts 232°
2026-05-03 22:08 -22.51575 -43.35130 10518 ft 342 kts 232°
2026-05-03 22:09 -22.53026 -43.37065 10379 ft 320 kts 232°
2026-05-03 22:09 -22.54383 -43.38876 10265 ft 300 kts 232°
2026-05-03 22:09 -22.55659 -43.40581 10127 ft 283 kts 232°
2026-05-03 22:10 -22.58045 -43.43771 9460 ft 268 kts 232°
2026-05-03 22:10 -22.59213 -43.45334 9027 ft 265 kts 231°
2026-05-03 22:10 -22.60369 -43.46881 8599 ft 263 kts 231°
2026-05-03 22:10 -22.61594 -43.48350 8085 ft 264 kts 217°
2026-05-03 22:11 -22.63185 -43.49148 7640 ft 264 kts 191°
2026-05-03 22:11 -22.65058 -43.49082 7159 ft 265 kts 164°
2026-05-03 22:11 -22.66678 -43.48142 6687 ft 267 kts 140°
2026-05-03 22:11 -22.67905 -43.46632 6215 ft 267 kts 128°
2026-05-03 22:12 -22.68966 -43.45002 5746 ft 261 kts 127°
2026-05-03 22:12 -22.69986 -43.43413 5267 ft 253 kts 127°
2026-05-03 22:12 -22.70980 -43.41884 4785 ft 244 kts 127°
2026-05-03 22:12 -22.71919 -43.40449 4280 ft 229 kts 128°
2026-05-03 22:13 -22.72824 -43.39078 3693 ft 220 kts 128°
2026-05-03 22:13 -22.73709 -43.37742 3061 ft 215 kts 128°
2026-05-03 22:13 -22.74576 -43.36435 2432 ft 212 kts 127°
2026-05-03 22:13 -22.75429 -43.35152 1865 ft 207 kts 127°
2026-05-03 22:14 -22.76247 -43.33957 1652 ft 186 kts 127°
2026-05-03 22:14 -22.76960 -43.32883 1505 ft 165 kts 127°
2026-05-03 22:14 -22.77594 -43.31919 1302 ft 151 kts 127°
2026-05-03 22:14 -22.78211 -43.30980 1105 ft 154 kts 126°
2026-05-03 22:15 -22.78834 -43.30034 900 ft 155 kts 126°
2026-05-03 22:15 -22.79462 -43.29078 690 ft 156 kts 125°
2026-05-03 22:15 -22.80094 -43.28117 477 ft 156 kts 124°
2026-05-03 22:15 -22.80725 -43.27142 290 ft 159 kts 123°
2026-05-03 22:16 -22.81362 -43.26179 69 ft 155 kts 124°
2026-05-03 22:16 -22.81939 -43.25316 25 ft 124 kts 125°
2026-05-03 22:16 -22.82297 -43.24777 18 ft 25 kts 125°
2026-05-03 22:16 -22.82348 -43.24628 19 ft 14 kts 103°
2026-05-03 22:17 -22.82364 -43.24524 18 ft 10 kts 94°
2026-05-03 22:17 -22.82362 -43.24453 18 ft 8 kts 70°
2026-05-03 22:17 -22.82337 -43.24424 17 ft 3 kts 38°
2026-05-03 22:17 -22.82317 -43.24408 18 ft 4 kts 37°
2026-05-03 22:18 -22.82295 -43.24391 20 ft 4 kts 34°
2026-05-03 22:18 -22.82272 -43.24374 18 ft 4 kts 34°
2026-05-03 22:18 -22.82251 -43.24358 22 ft 4 kts 34°
2026-05-03 22:18 -22.82229 -43.24341 20 ft 6 kts 36°
2026-05-03 22:19 -22.82166 -43.24296 20 ft 14 kts 20°
2026-05-03 22:19 -22.82091 -43.24357 20 ft 14 kts 307°
2026-05-03 22:19 -22.82033 -43.24442 20 ft 14 kts 306°
2026-05-03 22:19 -22.81979 -43.24526 20 ft 13 kts 305°
2026-05-03 22:20 -22.81924 -43.24601 20 ft 13 kts 326°
2026-05-03 22:20 -22.81844 -43.24578 20 ft 12 kts 35°
2026-05-03 22:20 -22.81766 -43.24562 21 ft 12 kts 324°
2026-05-03 22:20 -22.81716 -43.24635 22 ft 12 kts 303°
2026-05-03 22:21 -22.81670 -43.24707 21 ft 4 kts 304°
2026-05-03 22:21 -22.81650 -43.24716 21 ft 4 kts
2026-05-03 22:21 -22.81605 -43.24697 21 ft 9 kts 25°
2026-05-03 22:21 -22.81593 -43.24691 21 ft 0 kts 26°